Regional Weather Roundup
Issued by NWS

Home | Current Version | Previous Version | Text Only | Print | Product List | Glossary On
Versions: 1 2 3 4 5 6 7 8 9 10 11 12 13 14 15 16 17 18 19 20 21 22 23 24 25 26 27 28 29 30 31 32 33 34 35 36 37 38 39 40 41 42 43 44 45 46 47 48 49 50
000
ASUS45 KPSR 281110
RWRAZ

ARIZONA REGIONAL HOURLY WEATHER ROUNDUP
NATIONAL WEATHER SERVICE PHOENIX AZ
400 AM MST SAT MAR 28 2015

NOTE: FAIR INDICATES FEW OR NO CLOUDS BELOW 12,000 FEET WITH NO
SIGNIFICANT WEATHER AND/OR OBSTRUCTIONS TO VISIBILITY.

AZZ001>003-036-281200-
NORTHWEST ARIZONA

CITY           SKY/WX    TMP DP  RH WIND       PRES   REMARKS
BULLHEAD CITY  CLEAR     64  25  22 CALM      30.01F
KINGMAN        CLEAR     48  25  40 S6        30.13F
$$

AZZ004>008-015-016-018-281200-
NORTH CENTRAL ARIZONA

CITY           SKY/WX    TMP DP  RH WIND       PRES   REMARKS
GRAND CANYON   PTCLDY    26  19  74 E3        30.30S
WILLIAMS       PTCLDY    34  21  60 S12       30.37S WCI  25
PRESCOTT       PTCLDY    43  21  41 S6        30.23S
FLAGSTAFF      PTCLDY    31  20  63 CALM      30.31S
PAYSON         PTCLDY    50  21  32 CALM      30.24S
PAGE           CLEAR     54  22  28 CALM      30.15S
$$

AZZ009>014-017-281200-
NORTHEAST ARIZONA

CITY           SKY/WX    TMP DP  RH WIND       PRES   REMARKS
WINSLOW        PTCLDY    38  21  50 CALM      30.22S
SAINT JOHNS    MOCLDY    44  17  33 S7        30.25S
WINDOW ROCK    CLEAR     28  17  63 SW6       30.30R WCI  22
SHOW LOW       CLEAR     37  14  38 S5        30.31S WCI  34
$$

AZZ023-281200-
GREATER PHOENIX AREA

CITY           SKY/WX    TMP DP  RH WIND       PRES   REMARKS
PHOENIX        CLEAR     67  30  25 E7        30.00F
BUCKEYE        CLEAR     57  32  38 CALM      30.02S
LUKE AFB       CLEAR     59  39  47 CALM      30.01R
DEER VALLEY    CLEAR     65  26  23 CALM      30.02S
SCOTTSDALE     CLEAR     61  37  41 CALM      30.04S
MESA-GATEWAY   CLEAR     55  27  33 E9        30.05S
$$

AZZ027-028-281200-
SOUTHWEST MARICOPA COUNTY AND PINAL COUNTY

CITY           SKY/WX    TMP DP  RH WIND       PRES   REMARKS
CASA GRANDE    CLEAR     55  25  30 CALM      30.02S
GILA BEND      FAIR      65  21  18 S12       29.99S
$$

AZZ503-504-507>509-281200-
SOUTHEAST ARIZONA

CITY           SKY/WX    TMP DP  RH WIND       PRES   REMARKS
TUCSON         CLEAR     56  25  30 SE7       30.12S
DAVIS-MONTHAN  CLEAR     54  26  33 SE7       30.10F
NOGALES        CLEAR     46  22  38 CALM      30.16F
SIERRA VISTA   CLEAR     60  17  18 W8        30.20S
DOUGLAS        CLEAR     39  27  62 NW5       30.18R
SAFFORD        CLEAR     46  21  37 E5        30.11S
$$

AZZ020-021-025-026-031-281200-
SOUTHWEST ARIZONA

CITY           SKY/WX    TMP DP  RH WIND       PRES   REMARKS
YUMA           CLEAR     68  39  34 CALM      29.95F
$$

CAZ031-033-041-043-047-048-061-281200-
SOUTHERN CALIFORNIA

CITY           SKY/WX    TMP DP  RH WIND       PRES   REMARKS
DOWNTOWN L.A.  CLEAR     62  55  77 CALM      30.05R
L.A. AIRPORT   CLEAR     60  55  83 E3        30.05S
SAN DIEGO      FOG       62  58  86 E3        30.07S VSB 1
BURBANK        CLEAR     63  36  36 CALM      30.05S
ONTARIO        CLEAR     63  42  46 NE3       30.05F
RIVERSIDE      CLEAR     60  42  51 SE3       30.06S
PALM SPRINGS   CLEAR     72  35  25 W3        29.98F
EL CENTRO NAS  CLEAR     63  32  31 W8        29.94F
IMPERIAL       CLEAR     64  38  38 W3        29.94S
BLYTHE         CLEAR     62  32  32 N6        29.97S
NEEDLES        CLEAR     65  24  21 NW6       30.00F
$$

NVZ020-UTZ003-281200-
SOUTHERN NEVADA-UTAH

CITY           SKY/WX    TMP DP  RH WIND       PRES   REMARKS
LAS VEGAS      CLEAR     64  27  24 SW6       30.00F
SALT LAKE CITY CLEAR     50  33  52 SE9       30.08F
$$

NMZ009-TXZ055-281200-
NEW MEXICO-WEST TEXAS

CITY           SKY/WX    TMP DP  RH WIND       PRES   REMARKS
ALBUQUERQUE    CLEAR     45  19  35 SE5       30.20R
EL PASO        CLEAR     54  22  28 SE8       30.12S
$$


........................KEY........................
SKY/WX - SKY CONDITION/WEATHER
TMP    - TEMPERATURE IN FAHRENHEIT
DP     - DEW POINT IN FAHRENHEIT
RH     - RELATIVE HUMIDITY IN PERCENT
WIND   - DIRECTION AND SPEED IN MILES PER HOUR (MPH)
VRB    - VARIABLE WIND DIRECTION
PRES   - MEAN SEA LEVEL PRESSURE IN INCHES OF MERCURY
         F - FALLING PRESSURE   R - RISING PRESSURE
         S - STEADY PRESSURE
VSB    - VISIBILITY IN MILES
HX     - HEAT INDEX IN FAHRENHEIT
WCI    - WIND CHILL INDEX IN FAHRENHEIT
TC     - TEMPERATURE IN CELSIUS WHICH IS ALSO KNOWN AS
         TEMPERATURE IN CENTIGRADE
AFB    - AIR FORCE BASE
         LUKE AFB IS LUKE AIR FORCE BASE
         DAVIS-MONTHAN IS DAVIS-MONTHAN AIR FORCE BASE
NAS    - NAVAL AIR STATION
         EL CENTRO NAS IS EL CENTRO NAVAL AIR STATION
N/A    - NOT AVAILABLE




USA.gov is the U.S. government's official web portal to all federal, state and local government web resources and services.